Overview Statistics Trail Chart Weather Telemetry Raw packets
 

This is the latest recevied weather packets stored in our database for station/object KR0L-13. If no packets are shown the sender has not sent any weather packets the latest 10 day(s).

<< 42 43 44 45 46 47 48 >>
Time Temp. Humidity Pressure Rain* Wind** Luminosity Snow
1788017720 31.11° C 43% 1016.5 hPa 0 mm - - -
1788017122 30.56° C 43% 1016.6 hPa 0 mm - - -
1788016522 28.89° C 46% 1016.5 hPa 0 mm - - -
1788015922 28.33° C 47% 1016.6 hPa 0 mm - - -
1788015322 28.33° C 45% 1016.7 hPa 0 mm - - -
1788014722 28.89° C 44% 1016.7 hPa 0 mm - - -
1788014122 29.44° C 42% 1016.7 hPa 0 mm - - -
1788013522 29.44° C 43% 1016.8 hPa 0 mm - - -
1788012922 28.33° C 45% 1016.8 hPa 0 mm - - -
1788012322 27.78° C 48% 1016.8 hPa 0 mm - - -
1788011722 25.56° C 54% 1016.7 hPa 0 mm - - -
1788011122 23.89° C 60% 1016.8 hPa 0 mm - - -
1788010522 22.78° C 61% 1016.6 hPa 0 mm - - -
1788009922 22.78° C 62% 1016.5 hPa 0 mm - - -
1788009322 22.22° C 63% 1016.6 hPa 0 mm - - -
1788008722 21.67° C 64% 1016.7 hPa 0 mm - - -
1788008122 21.11° C 65% 1016.8 hPa 0 mm - - -
1788007522 21.11° C 65% 1016.9 hPa 0 mm - - -
1788006922 20.56° C 66% 1016.8 hPa 0 mm - - -
1788006322 20° C 67% 1016.6 hPa 0 mm - - -
1788005722 20° C 68% 1016.8 hPa 0 mm - - -
1788005122 20° C 68% 1016.7 hPa 0 mm - - -
1788004522 20° C 66% 1016.8 hPa 0 mm - - -
1788003921 20° C 64% 1016.9 hPa 0 mm - - -
1788003321 20.56° C 63% 1017.1 hPa 0 mm - - -

* Rain latest hour (hover to see other rain measurements)
** Current wind speed in m/s (hover to see current wind gust speed)